Weather in Zelenaya Polyana

Russia / Republic of Bashkortostan     53°36′27″N   58°37′00″E
temp.,
°C
wind,
m/s
gust,
m/s
humid.,
%
clouds,
%
prec.,
mm/h
press.,
hPa
HPBL,
m
28 february, sun
sun2823:00−15ene1297100 1.2 100722
02:00−16ne229899 0.1 100623
05:00−15ne229799 0.3 100548
08:00−14ene2397100 0.8 1004110
11:00−12ene3394100 1.5 1003199
14:00−10ene239299 0.2 1002269
17:00−10ene2394100 0.6 1003259
20:00−13ne229798 0.3 100540
1 march, mon
mon123:00−14nne129693 0.4 100826
02:00−17nne119794 0.1 101020
05:00−16ssw119893 0.1 101221
08:00−16s119793 0.2 101420
11:00−13sse119590 0.2 1015167
14:00−10se2294100 0.1 1015201
17:00−10sse2296100 0.4 1016161
20:00−13sw1297100 0.2 101720
2 march, tue
tue223:00−14wnw119599 0.3 101820
02:00−17wnw229587 0.0 101720
05:00−19wnw229759 0.0 101720
08:00−21wnw229722 0.0 101720
11:00−14wnw238911 0.0 1016214
14:00−9w357745 0.0 1013502
17:00−9wsw378863 0.0 1012472
20:00−14wsw2494100 0.0 1011119
3 march, wed
wed323:00−15wsw3893100 0.1 1010267
02:00−14sw3896100 0.1 1008321
05:00−11ssw41196100 0.3 1005467
08:00−8ssw41296100 0.4 1003531
11:00−4sw61088100 0.6 1001905
14:00−2sw6987100 0.1 1000954
17:00−2wsw5988100 0.4 999780
20:00−6w4109199 0.0 999255
4 march, thu
thu423:00−7wnw41090100 0.0 1001325
02:00−12wnw3393100 0.0 100239
05:00−14wnw3394100 0.0 100432
08:00−15wnw359452 0.0 100587
11:00−8nw6128445 0.0 1007692
14:00−6wnw6107819 0.0 10081300
17:00−8wnw7118154 0.1 1009991
20:00−12w5138984 0.0 1012392